DW3384 Weather Reports


Display with metric or nautical units.
time (UTC)temp
F
wind
direction
speed
MPH
gust
MPH
rain 1hr
in
rain 24hr
in
rain mn
in
humidity
%
barometer
mb
20201023003122 78 146 10.0 24.0 0.00 0.00 0.00 55 998.8
20201023001632 79 141 12.0 24.0 0.00 0.00 0.00 54 998.7
20201023000043 80 130 13.0 23.0 0.00 0.00 0.00 51 998.7
20201022234641 82 177 13.0 22.0 0.00 0.00 0.00 48 998.6
20201022233129 82 147 13.0 25.0 0.00 0.00 0.00 46 998.5
20201022231553 84 175 13.0 24.0 0.00 0.00 0.00 45 998.4
20201022230057 84 184 12.0 26.0 0.00 0.00 0.00 44 998.4
20201022224606 85 360 12.0 23.0 0.00 0.00 0.00 43 998.5
20201022223109 85 121 12.0 25.0 0.00 0.00 0.00 40 998.4
20201022220210 86 193 15.0 26.0 0.00 0.00 0.00 39 998.4
20201022214605 86 146 8.0 27.0 0.00 0.00 0.00 40 998.4
20201022213102 86 183 12.0 25.0 0.00 0.00 0.00 39 998.4
20201022211555 86 180 16.0 33.0 0.00 0.00 0.00 37 998.3
20201022210104 85 360 16.0 32.0 0.00 0.00 0.00 39 998.3
20201022204542 86 193 15.0 23.0 0.00 0.00 0.00 39 998.4
20201022203041 85 186 15.0 29.0 0.00 0.00 0.00 41 998.4
20201022201601 85 211 14.0 24.0 0.00 0.00 0.00 42 998.4
20201022200036 84 180 11.0 26.0 0.00 0.00 0.00 45 998.6
20201022194520 83 205 10.0 22.0 0.00 0.00 0.00 44 999.0
20201022193029 82 174 12.0 30.0 0.00 0.00 0.00 46 999.3
20201022191515 81 176 14.0 34.0 0.00 0.00 0.00 48 999.7
20201022190023 81 223 9.0 21.0 0.00 0.00 0.00 48 1000.1
20201022184644 81 201 9.0 25.0 0.00 0.00 0.00 49 1000.4
20201022183147 80 194 15.0 25.0 0.00 0.00 0.00 50 1000.5
20201022182327 80 157 12.0 32.0 0.00 0.00 0.00 51 1000.6
20201022180207 79 187 10.0 26.0 0.00 0.00 0.00 53 1000.9
20201022174809 78 225 9.0 24.0 0.00 0.00 0.00 53 1001.3
20201022173114 78 180 11.0 20.0 0.00 0.00 0.00 54 1001.5
20201022171639 77 219 9.0 21.0 0.00 0.00 0.00 56 1001.8
20201022170117 76 225 9.0 24.0 0.00 0.00 0.00 57 1002.1
20201022164626 75 204 9.0 23.0 0.00 0.00 0.00 59 1002.1
20201022163051 74 175 10.0 23.0 0.00 0.00 0.00 62 1002.2
20201022161549 73 218 9.0 27.0 0.00 0.00 0.00 64 1002.4
20201022160049 72 204 9.0 22.0 0.00 0.00 0.00 65 1002.6
20201022154528 71 194 8.0 22.0 0.00 0.00 0.00 67 1002.9
20201022153033 69 239 8.0 25.0 0.00 0.00 0.00 70 1003.1
20201022151549 68 188 11.0 21.0 0.00 0.00 0.00 72 1003.1
20201022150050 67 222 7.0 17.0 0.00 0.00 0.00 74 1003.5
20201022144527 66 209 8.0 21.0 0.00 0.00 0.00 76 1003.4
20201022143024 66 211 5.0 9.0 0.00 0.00 0.00 77 1003.6
20201022141553 65 238 3.0 11.0 0.00 0.00 0.00 78 1003.5
20201022140106 64 232 7.0 20.0 0.00 0.00 0.00 79 1002.8
20201022133056 63 230 1.0 4.0 0.00 0.00 0.00 79 1003.0
20201022131614 63 233 3.0 8.0 0.00 0.00 0.00 79 1002.9
20201022130028 63 198 8.0 21.0 0.00 0.00 0.00 79 1002.5
20201022124533 63 175 9.0 18.0 0.00 0.00 0.00 79 1002.4
20201022123022 63 182 11.0 21.0 0.00 0.00 0.00 78 1002.7
20201022121524 64 182 9.0 19.0 0.00 0.00 0.00 78 1002.9
20201022120001 64 155 10.0 17.0 0.00 0.00 0.00 79 1003.2
20201022114710 63 360 8.0 17.0 0.00 0.00 0.00 80 1003.4
20201022113213 63 182 9.0 16.0 0.00 0.00 0.00 80 1003.5
20201022111740 64 195 6.0 10.0 0.00 0.00 0.00 79 1003.7
20201022110209 64 200 3.0 10.0 0.00 0.00 0.00 79 1003.8
20201022104740 64 210 5.0 10.0 0.00 0.00 0.00 79 1003.7
20201022103145 64 144 3.0 11.0 0.00 0.00 0.00 79 1003.6
20201022101720 64 347 0.0 4.0 0.00 0.00 0.00 78 1003.9
20201022100145 65 234 3.0 14.0 0.00 0.00 0.00 76 1003.9
20201022094636 65 183 8.0 21.0 0.00 0.00 0.00 76 1003.1
20201022093100 65 360 9.0 20.0 0.00 0.00 0.00 77 1003.1
20201022091617 65 175 8.0 17.0 0.00 0.00 0.00 77 1003.3
20201022090129 65 147 5.0 13.0 0.00 0.00 0.00 76 1003.8
20201022084638 65 223 3.0 14.0 0.00 0.00 0.00 75 1004.2
20201022083051 66 199 7.0 14.0 0.00 0.00 0.00 75 1004.1
20201022081707 66 186 9.0 24.0 0.00 0.00 0.00 75 1003.6
20201022080113 66 202 13.0 24.0 0.00 0.00 0.00 74 1003.4
20201022074540 67 175 15.0 30.0 0.00 0.00 0.00 73 1003.2
20201022073115 67 219 13.0 28.0 0.00 0.00 0.00 73 1003.2
20201022071539 67 188 15.0 30.0 0.00 0.00 0.00 72 1003.3
20201022070115 68 194 17.0 32.0 0.00 0.00 0.00 71 1003.5
20201022064543 68 189 16.0 27.0 0.00 0.00 0.00 70 1003.7
20201022063050 69 190 14.0 25.0 0.00 0.00 0.00 70 1003.8
20201022061523 69 175 15.0 30.0 0.00 0.00 0.00 69 1003.8
20201022060034 69 196 14.0 33.0 0.00 0.00 0.00 69 1003.9
20201022054530 69 360 16.0 31.0 0.00 0.00 0.00 68 1004.0
20201022053037 70 169 16.0 26.0 0.00 0.00 0.00 68 1004.0
20201022051520 70 360 12.0 26.0 0.00 0.00 0.00 67 1004.0
20201022050023 70 165 15.0 26.0 0.00 0.00 0.00 66 1004.1
20201022044512 71 181 12.0 24.0 0.00 0.00 0.00 65 1004.2
20201022043027 71 185 14.0 25.0 0.00 0.00 0.00 64 1004.3
20201022041516 71 156 14.0 29.0 0.00 0.00 0.00 64 1004.3
20201022040155 72 184 15.0 25.0 0.00 0.00 0.00 63 1004.3
20201022034949 72 119 15.0 28.0 0.00 0.00 0.00 61 1004.2
20201022033112 73 182 15.0 23.0 0.00 0.00 0.00 60 1004.3
20201022031705 73 153 10.0 27.0 0.00 0.00 0.00 60 1004.5
20201022030145 73 360 13.0 21.0 0.00 0.00 0.00 60 1004.6
20201022024619 74 165 12.0 23.0 0.00 0.00 0.00 59 1004.5
20201022023231 74 190 13.0 26.0 0.00 0.00 0.00 59 1004.5
20201022021735 74 153 12.0 23.0 0.00 0.00 0.00 58 1004.5
20201022020136 74 360 13.0 21.0 0.00 0.00 0.00 58 1004.7
20201022014710 75 164 9.0 21.0 0.00 0.00 0.00 58 1004.9
20201022013104 75 167 11.0 18.0 0.00 0.00 0.00 57 1004.8
20201022011645 75 202 8.0 22.0 0.00 0.00 0.00 57 1004.9
20201022010135 76 360 9.0 24.0 0.00 0.00 0.00 56 1004.8
20201022004640 76 157 8.0 15.0 0.00 0.00 0.00 57 1004.9